DateTimeUTC,F1_A11,F1_S11,BsB_S11,BsG_S11,BsR_S11,BbsB_S11,BbsG_S11,BbsR_S11,BaB_A11,BaG_A11,BaR_A11,Tu_S11,T_S11,Uu_S11,U_S11,P_S11,T1_A11
2021-06-17T09:00:00Z,00000200,21000000,,,,,,,0000.07,0000.10,0000.11,17.6,24.6,01.1,00.7,0668.0,31.0
2021-06-17T09:01:00Z,00000200,21000000,,,,,,,-000.05,-000.19,-000.20,17.6,24.6,01.2,00.8,0668.0,31.0
2021-06-17T09:02:00Z,00000200,21000000,,,,,,,-000.26,0000.04,-000.19,17.6,24.6,01.2,00.8,0668.0,31.0
2021-06-17T09:03:00Z,00000200,61000000,,,,,,,-000.14,0000.00,0000.33,17.6,24.6,01.2,00.8,0668.0,31.0
2021-06-17T09:04:00Z,00000200,41000000,0000.71,0000.39,0000.59,0000.92,0000.26,-000.02,0000.75,0000.38,0000.06,17.8,24.5,01.2,00.8,0669.0,31.0
2021-06-17T09:05:00Z,00000200,01000000,0001.60,0000.63,0000.35,0000.79,-000.17,0000.05,0000.48,0000.50,0000.31,17.9,24.5,01.2,00.8,0669.0,31.0
2021-06-17T09:06:00Z,00000200,01000000,0000.75,0000.48,0000.26,0000.29,0000.16,-000.13,-000.12,0000.18,-000.13,17.8,24.4,01.3,00.9,0669.0,31.0
2021-06-17T09:07:00Z,00000200,01000000,0001.08,0000.30,0000.68,0000.21,0000.06,0000.46,0000.69,0000.13,0000.46,17.8,24.4,01.3,00.8,0669.0,31.0
2021-06-17T09:08:00Z,00000200,01000000,0000.99,0000.53,0000.22,0000.82,0000.06,0000.24,0000.11,0000.09,0000.24,17.8,24.4,01.2,00.8,0669.0,31.0
2021-06-17T09:09:00Z,00000200,01000000,0001.21,0000.25,0000.51,0000.80,0000.34,-000.05,0000.16,0000.59,0000.08,17.8,24.4,01.2,00.8,0669.0,31.0
2021-06-17T09:10:00Z,00000200,01000000,0001.24,0000.50,0000.35,0000.79,-000.03,-000.06,0000.14,0000.34,0000.16,17.7,24.3,01.3,00.9,0669.0,31.0
2021-06-17T09:11:00Z,00000200,01000000,0001.66,0000.25,0000.59,0000.51,0000.29,0000.07,0000.37,-000.02,0000.08,17.7,24.3,01.4,00.9,0669.0,31.0
2021-06-17T09:12:00Z,00000200,01000000,0000.87,0000.45,0000.20,-000.02,0000.01,-000.17,0000.22,0000.35,0000.07,17.7,24.3,01.4,00.9,0669.0,31.0
2021-06-17T09:13:00Z,00000200,01000000,0000.90,0000.77,0000.38,0000.60,0000.23,0000.05,0000.17,-000.09,0000.24,17.7,24.3,01.4,00.9,0669.0,31.0
2021-06-17T09:14:00Z,00000200,01000000,0000.76,0000.61,0000.73,0000.26,-000.10,0000.19,0000.44,0000.22,0000.15,17.7,24.3,01.4,01.0,0669.0,31.0
2021-06-17T09:15:00Z,00000200,01000000,0001.25,0000.41,0000.48,0001.20,0000.19,0000.26,0000.55,0000.49,0000.46,17.8,24.3,01.4,01.0,0669.0,31.0
2021-06-17T09:16:00Z,00000200,01000000,0001.21,0000.53,0000.46,0000.72,0000.06,0000.13,0000.06,0000.34,0000.16,17.8,24.3,01.5,01.0,0669.0,31.0
2021-06-17T09:17:00Z,00000200,01000000,0001.23,0000.71,0000.35,0000.31,0000.18,0000.42,0000.62,0000.50,0000.31,17.8,24.3,01.5,01.0,0669.0,31.0
2021-06-17T09:18:00Z,00000200,01000000,0001.05,0000.73,0000.40,0000.43,-000.06,0000.19,0000.12,0000.31,0000.21,17.9,24.4,01.4,00.9,0669.0,31.1
2021-06-17T09:19:00Z,00000200,01000000,0000.93,0000.64,0000.52,0000.74,-000.00,0000.11,0000.41,0000.09,0000.06,17.9,24.3,01.5,01.0,0669.0,31.0
2021-06-17T09:20:00Z,00000200,01000000,0000.88,0000.19,0000.42,0000.69,0000.31,-000.04,0000.35,0000.55,0000.51,17.8,24.3,01.5,01.0,0669.0,31.0
2021-06-17T09:21:00Z,00000200,01000000,0001.06,0000.45,0000.54,0000.55,0000.20,0000.08,0000.34,-000.04,-000.25,17.8,24.3,01.5,01.0,0669.0,31.0
2021-06-17T09:22:00Z,00000200,01000000,0001.22,0000.59,0000.01,0000.43,0000.25,0000.27,0000.19,0000.15,0000.25,17.8,24.3,01.6,01.1,0669.0,31.0
2021-06-17T09:23:00Z,00000200,01000000,0000.90,0000.59,0000.23,0000.60,0000.17,-000.04,0000.04,0000.37,0000.17,17.8,24.3,01.6,01.1,0669.0,31.0
2021-06-17T09:24:00Z,00000200,01000000,0001.16,0000.48,0000.61,0000.67,0000.02,0000.32,0000.61,0000.44,0000.45,17.7,24.3,01.6,01.1,0669.0,31.0
2021-06-17T09:25:00Z,00000200,01000000,0000.71,0000.57,0000.32,0000.33,-000.06,0000.12,0000.09,0000.04,0000.22,17.7,24.3,01.6,01.1,0669.0,31.0
2021-06-17T09:26:00Z,00000200,01000000,0001.61,0000.43,0000.27,0000.81,0000.18,0000.26,0000.23,0000.34,0000.05,17.7,24.3,01.6,01.1,0669.0,31.0
2021-06-17T09:27:00Z,00000200,01000000,0001.13,0000.37,0000.55,0000.59,0000.15,0000.33,0000.31,0000.04,0000.08,17.7,24.2,01.6,01.1,0669.0,31.0
2021-06-17T09:28:00Z,00000200,01000000,0001.65,0000.67,0000.32,0000.64,-000.07,0000.23,0000.12,0000.33,0000.23,17.7,24.2,01.6,01.1,0669.0,31.0
2021-06-17T09:29:00Z,00000200,01000000,0001.26,0000.30,0000.07,0000.71,0000.16,0000.22,0000.60,0000.24,0000.04,17.7,24.2,01.6,01.1,0669.0,31.0
2021-06-17T09:30:00Z,00000200,01000000,0001.30,0000.60,0000.47,0001.01,0000.14,0000.33,0000.13,0000.33,0000.28,17.7,24.2,01.7,01.1,0669.0,31.0
2021-06-17T09:31:00Z,00000200,01000000,0000.99,0000.10,0000.37,0001.02,0000.31,0000.24,0000.64,0000.23,0000.49,17.8,24.3,01.8,01.2,0669.0,31.0
2021-06-17T09:32:00Z,00000200,01000000,0000.86,0000.61,0000.41,0000.30,0000.24,0000.02,0000.04,0000.20,-000.08,17.8,24.3,01.7,01.2,0669.0,31.0
2021-06-17T09:33:00Z,00000200,01000000,0000.75,0000.31,0000.76,0000.18,0000.20,-000.04,0000.39,0000.90,0000.41,17.9,24.3,01.7,01.1,0669.0,31.0
2021-06-17T09:34:00Z,00000200,01000000,0001.37,0000.71,0000.43,0000.43,-000.13,0000.02,0000.65,0000.26,0000.43,17.9,24.3,01.7,01.2,0669.0,31.0
2021-06-17T09:35:00Z,00000200,01000000,0000.97,0000.62,0000.34,0000.26,-000.06,0000.02,0000.16,-000.01,0000.29,17.9,24.3,01.9,01.2,0669.0,31.0
2021-06-17T09:36:00Z,00000200,01000000,0001.50,0000.40,0000.52,0000.68,-000.07,0000.12,0000.35,0000.48,-000.04,17.8,24.3,01.9,01.3,0669.0,31.0
2021-06-17T09:37:00Z,00000200,01000000,0000.86,0000.21,0000.23,0000.01,0000.00,0000.13,0000.31,-000.12,0000.02,17.8,24.3,01.9,01.3,0669.0,31.0
2021-06-17T09:38:00Z,00000200,01000000,0001.13,0000.87,0000.37,0000.50,0000.13,0000.15,0000.16,0000.21,0000.21,17.8,24.2,01.9,01.3,0669.0,31.0
2021-06-17T09:39:00Z,00000200,01000000,0001.16,0000.57,0000.62,0000.67,0000.61,0000.10,0000.35,0000.42,0000.44,17.8,24.2,01.9,01.3,0669.0,31.0
2021-06-17T09:40:00Z,00000200,00000000,0000.94,0000.59,0000.58,0000.97,0000.41,0000.17,0000.35,0000.39,0000.26,17.8,24.2,01.9,01.3,0669.0,31.0
2021-06-17T09:41:00Z,00000200,00000000,0001.33,0000.87,0000.17,0000.82,0000.08,-000.11,0000.35,0000.40,-000.18,17.7,24.2,02.0,01.3,0669.0,31.0
2021-06-17T09:42:00Z,00000200,00000000,0000.60,0000.56,0000.58,0000.40,0000.20,0000.24,0000.41,0000.07,0000.29,17.7,24.2,02.0,01.4,0669.0,31.0
2021-06-17T09:43:00Z,00000200,00000000,0000.96,0000.53,0000.46,0000.33,0000.29,0000.08,-000.04,0000.51,0000.11,17.7,24.2,02.0,01.3,0669.0,31.0
2021-06-17T09:44:00Z,00000200,00000000,0000.94,0000.51,0000.81,0000.11,0000.05,0000.21,0000.44,0000.38,0000.54,17.7,24.2,02.0,01.4,0669.0,31.0
2021-06-17T09:45:00Z,00000200,00000000,0001.14,0000.56,0000.34,0000.27,0000.22,0000.14,0000.55,-000.04,-000.14,17.8,24.2,02.0,01.4,0669.0,31.0
2021-06-17T09:46:00Z,00000200,00000000,0001.14,0000.76,0000.47,0000.79,0000.33,0000.10,0000.29,0000.57,0000.35,17.8,24.2,02.1,01.4,0669.0,31.0
2021-06-17T09:47:00Z,00000200,00000000,0000.59,0000.42,0000.38,0001.09,0000.15,-000.06,0000.30,0000.35,0000.66,17.8,24.3,02.1,01.4,0669.0,31.0
2021-06-17T09:48:00Z,00000200,00000000,0001.12,0000.65,0000.65,0000.64,0000.22,0000.36,0000.16,0000.30,-000.26,17.8,24.2,02.1,01.4,0669.0,31.0
2021-06-17T09:49:00Z,00000200,00000000,0001.18,0000.67,0000.42,0000.53,-000.07,0000.04,0000.47,0000.36,0000.04,17.8,24.2,02.2,01.5,0669.0,31.1
2021-06-17T09:50:00Z,00000200,00000000,0000.60,0000.48,0000.34,0000.77,0000.09,0000.26,0000.48,0000.09,0000.76,17.8,24.2,02.2,01.5,0669.0,31.0
2021-06-17T09:51:00Z,00000200,00000000,0000.81,0000.44,0000.05,0000.66,0000.35,0000.02,-000.09,0000.18,0000.01,17.8,24.2,02.2,01.5,0669.0,31.0
2021-06-17T09:52:00Z,00000200,00000000,0001.09,0000.40,0000.43,0000.76,-000.10,0000.12,0000.59,0000.30,0000.03,17.8,24.2,02.3,01.5,0669.0,31.0
2021-06-17T09:53:00Z,00000200,00000000,0001.47,0000.68,0000.62,0000.05,0000.43,0000.13,0000.14,0000.33,0000.38,17.8,24.2,02.1,01.4,0669.0,31.0
2021-06-17T09:54:00Z,00000200,00000000,0001.13,0000.63,0000.47,0000.32,0000.12,0000.22,0000.44,0000.31,0000.28,17.7,24.2,02.3,01.6,0669.0,31.0
2021-06-17T09:55:00Z,00000200,00000000,0001.25,0000.53,0000.67,0000.73,0000.29,0000.18,0000.34,0000.42,0000.07,17.7,24.2,02.2,01.5,0669.0,31.0
2021-06-17T09:56:00Z,00000200,00000000,0001.06,0000.62,0000.44,0000.42,-000.17,0000.39,0000.33,0000.29,0000.32,17.7,24.1,02.2,01.5,0669.0,31.0
2021-06-17T09:57:00Z,00000200,40000000,,,,,,,-000.62,-000.83,-000.52,17.8,24.2,01.9,01.3,0669.0,31.0
2021-06-17T09:58:00Z,00000200,60000000,,,,,,,0000.17,0000.36,0000.02,17.5,24.3,02.0,01.3,0668.0,31.0
2021-06-17T09:59:00Z,00000200,20000000,,,,,,,-000.10,-000.28,0000.17,17.5,24.4,02.0,01.3,0668.0,31.0
